AMX643 KLAX-MMMX

Flight info

Callsign AMX643
Flight time N/A
Altitude 35000
Route PNDAH2 TCATE DCT PPE UJ7 HMO UT18 NABAS UT49 DGO UJ5 ZCL UT130 DARAN DARAN3A
Aircraft B738/M-SDE2E3FGHIRWXY/LB1

Departure

Time 2026-05-06 01:35
Airport Los Angeles International Airport (KLAX)

Arrival

Time N/A
Airport Mexico City Benito Juárez International Airport (MMMX)
Time Latitude Longitude Altitude Speed Heading
2026-05-06 00:57 33.94638 -118.40641 129 ft 0 kts 263°
2026-05-06 01:22 33.94639 -118.40635 128 ft 2 kts 267°
2026-05-06 01:22 33.94636 -118.40617 128 ft 2 kts 292°
2026-05-06 01:22 33.94629 -118.40601 128 ft 2 kts 311°
2026-05-06 01:23 33.94618 -118.40589 128 ft 2 kts 330°
2026-05-06 01:23 33.94603 -118.40582 128 ft 2 kts 350°
2026-05-06 01:23 33.94594 -118.40582 128 ft 1 kts 357°
2026-05-06 01:23 33.94593 -118.40582 128 ft 0 kts 357°
2026-05-06 01:29 33.94608 -118.40583 128 ft 4 kts 354°
2026-05-06 01:29 33.94658 -118.40590 128 ft 9 kts 353°
2026-05-06 01:29 33.94732 -118.40592 128 ft 12 kts
2026-05-06 01:30 33.94817 -118.40597 127 ft 9 kts 350°
2026-05-06 01:30 33.94865 -118.40571 126 ft 7 kts 68°
2026-05-06 01:30 33.94876 -118.40492 126 ft 12 kts 83°
2026-05-06 01:30 33.94889 -118.40369 125 ft 15 kts 83°
2026-05-06 01:31 33.94901 -118.40242 124 ft 14 kts 83°
2026-05-06 01:31 33.94913 -118.40124 123 ft 13 kts 83°
2026-05-06 01:31 33.94924 -118.40015 121 ft 13 kts 83°
2026-05-06 01:31 33.94938 -118.39944 119 ft 6 kts 60°
2026-05-06 01:32 33.94947 -118.39931 119 ft 0 kts 42°
2026-05-06 01:33 33.94949 -118.39928 118 ft 2 kts 41°
2026-05-06 01:33 33.94983 -118.39912 118 ft 7 kts
2026-05-06 01:34 33.95039 -118.39930 117 ft 4 kts 313°
2026-05-06 01:34 33.95042 -118.39955 117 ft 2 kts 264°
2026-05-06 01:34 33.95039 -118.39991 118 ft 10 kts 264°
2026-05-06 01:34 33.95013 -118.40230 121 ft 56 kts 263°
2026-05-06 01:35 33.94945 -118.40901 129 ft 108 kts 263°
2026-05-06 01:35 33.94833 -118.42004 125 ft 155 kts 263°
2026-05-06 01:35 33.94688 -118.43423 289 ft 175 kts 263°
2026-05-06 01:35 33.94549 -118.44837 814 ft 174 kts 263°
2026-05-06 01:36 33.94414 -118.46291 1355 ft 172 kts 263°
2026-05-06 01:36 33.94305 -118.47703 1869 ft 171 kts 266°
2026-05-06 01:36 33.94258 -118.49258 1989 ft 191 kts 269°
2026-05-06 01:36 33.94252 -118.50846 2462 ft 190 kts 269°
2026-05-06 01:37 33.94164 -118.52478 2747 ft 201 kts 264°
2026-05-06 01:37 33.93971 -118.54240 3008 ft 214 kts 262°
2026-05-06 01:37 33.93775 -118.56043 3418 ft 221 kts 264°
2026-05-06 01:37 33.93625 -118.57960 3604 ft 239 kts 267°
2026-05-06 01:38 33.93424 -118.60023 3910 ft 252 kts 257°
2026-05-06 01:38 33.92670 -118.61964 4328 ft 264 kts 232°
2026-05-06 01:38 33.91203 -118.63385 4779 ft 274 kts 207°
2026-05-06 01:38 33.89402 -118.64020 5289 ft 280 kts 188°
2026-05-06 01:39 33.87403 -118.64020 5733 ft 287 kts 175°
2026-05-06 01:39 33.85428 -118.63786 6409 ft 284 kts 174°
2026-05-06 01:39 33.83470 -118.63336 6936 ft 287 kts 159°
2026-05-06 01:39 33.81696 -118.62201 7413 ft 290 kts 143°
2026-05-06 01:40 33.80063 -118.60759 7947 ft 293 kts 143°
2026-05-06 01:40 33.78422 -118.59283 8493 ft 294 kts 141°
2026-05-06 01:40 33.76753 -118.57767 8948 ft 300 kts 142°
2026-05-06 01:40 33.75030 -118.56282 9401 ft 305 kts 144°
2026-05-06 01:41 33.73249 -118.54841 10044 ft 302 kts 145°
2026-05-06 01:41 33.71459 -118.53430 10338 ft 313 kts 144°
2026-05-06 01:41 33.69704 -118.51812 10548 ft 324 kts 133°
2026-05-06 01:41 33.68311 -118.49572 10698 ft 336 kts 117°
2026-05-06 01:42 33.67246 -118.47051 10900 ft 348 kts 113°
2026-05-06 01:42 33.66218 -118.44373 11074 ft 361 kts 112°
2026-05-06 01:42 33.65106 -118.41522 11220 ft 376 kts 113°
2026-05-06 01:42 33.63937 -118.38648 11488 ft 387 kts 115°
2026-05-06 01:43 33.62730 -118.35786 11979 ft 390 kts 115°
2026-05-06 01:43 33.61469 -118.32849 12492 ft 393 kts 116°
2026-05-06 01:43 33.60201 -118.29921 13005 ft 396 kts 116°
2026-05-06 01:43 33.58931 -118.26995 13481 ft 401 kts 116°
2026-05-06 01:44 33.57650 -118.24048 14069 ft 402 kts 116°
2026-05-06 01:44 33.56359 -118.21079 14652 ft 404 kts 116°
2026-05-06 01:44 33.55046 -118.18053 15178 ft 408 kts 116°
2026-05-06 01:44 33.53740 -118.15044 15735 ft 410 kts 115°
2026-05-06 01:45 33.52398 -118.11941 16281 ft 413 kts 115°
2026-05-06 01:45 33.51073 -118.08865 16761 ft 417 kts 116°
2026-05-06 01:45 33.49726 -118.05734 17295 ft 420 kts 116°
2026-05-06 01:45 33.48329 -118.02628 17842 ft 422 kts 118°
2026-05-06 01:46 33.46768 -117.99689 18295 ft 427 kts 125°
2026-05-06 01:46 33.43821 -117.95692 19058 ft 432 kts 134°
2026-05-06 01:46 33.40648 -117.92176 19660 ft 439 kts 137°
2026-05-06 01:46 33.37008 -117.88387 20373 ft 443 kts 138°
2026-05-06 01:47 33.33324 -117.84586 21053 ft 448 kts 138°
2026-05-06 01:47 33.29707 -117.80825 21615 ft 455 kts 138°
2026-05-06 01:47 33.25780 -117.76717 22282 ft 458 kts 138°
2026-05-06 01:47 33.17312 -117.67764 23193 ft 464 kts 136°
2026-05-06 01:48 33.08501 -117.56631 23815 ft 471 kts 128°
2026-05-06 01:48 33.00319 -117.42220 24608 ft 477 kts 118°
2026-05-06 01:48 32.93468 -117.23570 25325 ft 485 kts 108°
2026-05-06 01:48 32.86689 -116.89439 26205 ft 492 kts 99°
2026-05-06 01:49 32.82554 -116.39282 27164 ft 499 kts 95°
2026-05-06 01:49 32.76968 -115.78375 27491 ft 506 kts 98°